Home   Weather   Ostrava   Past weeks
Flag for Czech Republic

Past Weather in Ostrava, Czech Republic — Yesterday and Last 2 Weeks

Now
51 °F

Clear.


Feels Like: N/A
Forecast: 70 / 54 °F
Wind: N/A

Location: Ostrava / Mosnov

Current Time: Oct 20, 2019 at 4:12:43 am

Latest Report: Oct 20, 2019 at 3:00 am


Visibility: 13 mi

Pressure: 29.94 "Hg

Humidity: 96%

Dew Point: 50 °F

Location of OstravaLocation

Past Weather in Ostrava — Graph

°F

Ostrava Temperature Yesterday

Maximum temperature yesterday: 67 °F (at 4:00 pm)
Minimum temperature yesterday: 50 °F (at 1:00 am)
Average temperature yesterday: 55 °F

High & Low Weather Summary for the Past Weeks

 TemperatureHumidityPressure
High76 °F (Oct 15, 3:00 pm)98% (Oct 7, 7:00 am)30.22 "Hg (Oct 7, 7:00 am)
Low30 °F (Oct 8, 5:00 am)33% (Oct 15, 4:00 pm)29.70 "Hg (Oct 5, 2:00 pm)
Average53 °F80%30.01 "Hg
* Reported Oct 5 2:00 am — Oct 20 2:00 am, Ostrava. Weather by CustomWeather, © 2019

Note: Actual official high and low records may vary slightly from our data, if they occured in-between our weather recording intervals... More about our weather records

Advertising

Ostrava Weather History for the Previous 24 Hours

Scroll right to see more
 ConditionsComfort  
Time TempWeatherWind HumidityBarometerVisibility
2:00 am
Sun, Oct 20
50 °FClear.3 mph96%29.95 "Hg12 mi
1:00 am50 °FClear.2 mph94%29.95 "Hg12 mi
12:00 am48 °FPassing clouds.1 mph94%29.96 "Hg10 mi
11:00 pm
Sat, Oct 19
51 °FPassing clouds.N/A94%29.96 "Hg10 mi
10:00 pm53 °FPassing clouds.2 mph83%29.96 "Hg12 mi
9:00 pm55 °FPassing clouds.2 mph81%29.96 "Hg12 mi
8:00 pm57 °FOvercast.N/A77%29.95 "Hg12 mi
7:00 pm57 °FOvercast.2 mph82%29.96 "Hg16 mi
6:00 pm58 °FOvercast.3 mph75%29.95 "Hg16 mi
5:00 pm63 °FPartly sunny.5 mph65%29.93 "Hg16 mi
4:00 pm67 °FPartly sunny.3 mph57%29.91 "Hg16 mi
3:00 pm66 °FPartly sunny.N/A63%29.91 "Hg16 mi
2:00 pm64 °FPartly sunny.N/A63%29.93 "Hg16 mi
1:00 pm62 °FPartly sunny.N/A69%29.93 "Hg12 mi
12:00 pm59 °FOvercast.N/A79%29.96 "Hg6 mi
11:00 am55 °FFog.3 mph89%29.98 "Hg4 mi
10:00 am51 °FFog.5 mph97%29.99 "Hg2 mi
9:00 am51 °FFog.5 mph97%30.00 "Hg2 mi
8:00 am50 °FFog.6 mph97%29.99 "Hg2 mi
7:00 am50 °FFog.6 mph97%29.99 "Hg2 mi
6:00 am51 °FFog.5 mph97%29.99 "Hg2 mi
5:00 am51 °FFog.6 mph97%30.00 "Hg2 mi
4:00 am51 °FFog.5 mph97%29.98 "Hg3 mi
Weather by CustomWeather, © 2019

See weather overview